Theta_e
282 281 280 280 280 281 280 281 281 281 281 281 281 281 281 281 281 281 281 281 281 281 280 280 280 280 280 280 280 280 280 280 280 279 279 279 279 279 279 278 278 277 277 277 277 277 277 277 277 277 277 277 277 277 277 277 277 277 276 277 277 277
282 281 280 280 280 280 280 281 281 281 281 281 281 281 281 280 280 280 280 280 281 280 280 280 280 280 280 280 279 279 279 279 279 279 279 279 279 278 278 278 278 277 277 277 277 277 277 277 277 277 277 277 277 276 276 277 276 276 276 276 277 277
281 281 280 281 281 281 281 281 281 281 281 280 281 280 280 280 279 279 279 279 279 279 279 278 278 278 278 278 278 278 278 279 279 279 279 278 278 278 278 277 277 277 277 277 277 276 276 276 276 277 276 276 276 276 276 276 276 275 275 276 275 276
281 281 281 281 281 281 281 281 280 280 280 280 280 280 280 280 279 279 279 279 279 279 278 278 278 278 278 278 278 278 278 278 278 278 278 278 278 278 277 277 277 277 277 276 276 276 276 276 276 276 276 275 275 275 275 275 275 275 275 275 275 276
282 281 281 281 281 281 281 281 281 281 280 280 280 280 280 280 280 280 279 279 279 278 278 278 278 278 278 278 278 278 278 278 278 278 277 278 277 277 277 277 277 276 276 275 275 275 275 275 275 275 275 275 275 274 275 275 274 274 274 274 275 275
282 282 281 281 281 281 281 281 281 281 280 280 280 280 280 280 279 279 279 279 278 278 278 278 277 277 278 278 278 277 277 277 277 277 277 277 277 276 277 276 276 275 275 275 275 275 275 274 275 274 275 274 274 274 274 274 274 274 274 274 275 275
282 282 282 281 282 282 282 281 281 281 281 280 280 280 280 279 279 278 278 278 278 278 278 277 277 277 277 277 277 277 277 277 277 277 277 276 276 276 276 275 275 274 274 273 274 274 274 274 274 273 273 274 274 274 273 274 274 274 275 275 275 275
282 282 282 282 282 282 282 282 282 281 281 280 280 280 279 278 278 279 278 278 278 278 278 277 277 277 277 277 277 277 277 276 276 276 276 275 274 274 274 273 273 273 273 273 273 273 273 273 273 272 273 273 273 273 273 274 274 274 275 275 275 275
281 282 282 283 283 283 283 283 282 281 281 280 280 279 279 278 278 278 278 278 278 278 278 277 277 277 277 277 277 276 276 276 275 275 274 274 273 273 272 272 272 272 272 272 272 272 272 271 272 272 272 272 272 273 274 274 274 274 274 274 274 274
282 282 283 283 283 283 283 282 282 281 280 280 280 279 279 278 278 278 278 277 277 278 278 277 277 277 277 276 276 276 275 275 274 273 273 272 272 271 271 271 271 271 271 271 271 271 271 271 270 271 271 271 272 273 274 274 274 274 274 274 274 274
282 282 282 283 283 282 282 281 281 281 281 281 280 280 279 279 278 278 277 277 277 277 277 277 277 276 276 275 275 274 274 273 272 272 271 271 271 271 271 270 270 270 269 269 269 269 270 269 269 270 270 272 274 274 274 274 274 273 273 273 273 273
281 281 281 281 282 282 282 282 281 281 281 280 280 280 280 278 278 278 277 277 277 277 277 276 276 276 275 274 273 273 272 271 271 270 270 270 269 269 269 269 269 269 268 268 268 268 268 268 269 269 273 275 275 275 274 274 274 273 273 273 272 272
281 280 280 281 281 282 282 282 282 281 281 281 280 280 279 279 278 278 278 278 278 277 276 276 275 274 274 273 272 270 269 270 269 268 268 268 268 268 268 268 268 267 267 267 267 267 267 267 267 270 274 275 276 275 274 274 273 273 273 272 272 271
280 280 280 280 281 281 282 282 282 281 280 281 280 280 279 278 278 278 278 278 277 276 276 275 274 273 272 270 269 268 268 267 266 267 267 266 266 266 267 266 266 266 266 266 266 266 266 266 268 271 273 274 275 276 275 274 273 273 272 272 272 271
281 281 280 280 280 281 281 282 281 280 281 280 281 279 278 278 278 278 278 277 276 275 275 274 273 271 269 268 267 267 266 265 266 265 265 264 265 265 265 266 265 265 265 265 265 265 265 265 267 270 273 274 275 276 275 274 273 272 272 272 271 270
280 280 280 280 280 281 281 280 280 281 281 281 279 278 278 278 277 277 277 276 275 274 274 272 271 269 268 266 266 266 265 264 264 265 265 264 265 265 264 264 264 264 264 264 264 264 264 264 266 270 273 274 274 275 275 273 273 272 271 270 269 269
279 279 278 279 279 279 279 279 279 279 278 279 278 278 277 277 277 276 276 275 274 272 271 271 269 268 266 265 264 264 264 264 264 264 264 263 264 264 263 263 262 262 262 262 263 263 262 263 267 271 272 273 274 275 275 272 271 270 269 269 269 269
278 278 278 279 278 278 278 279 278 278 278 276 278 276 277 276 275 275 274 273 272 271 270 269 268 266 265 265 264 263 264 264 263 262 263 262 263 263 263 262 262 262 261 262 261 261 261 263 267 269 271 272 273 274 272 270 269 269 269 269 269 269
279 279 278 277 278 277 277 277 277 277 275 275 275 274 274 274 273 274 273 272 271 270 269 268 267 265 264 263 263 262 262 263 262 262 262 261 262 262 261 261 261 261 261 260 260 260 261 261 264 268 270 272 273 272 270 270 269 269 268 268 269 269
278 278 278 277 277 277 277 276 276 275 275 274 272 272 272 273 274 274 272 272 270 269 267 267 265 264 263 262 262 262 263 262 262 261 261 261 261 261 260 260 260 260 260 260 260 260 260 261 264 268 270 271 271 272 270 269 268 268 268 268 269 269
278 277 276 276 276 275 274 274 274 274 274 273 272 272 272 272 273 272 271 270 268 267 265 264 264 263 262 261 262 260 261 261 260 260 260 259 259 259 259 259 259 259 259 259 259 261 262 261 262 265 268 270 271 271 270 269 269 268 268 268 268 269
275 274 274 275 277 274 272 273 274 274 274 272 271 271 272 273 273 272 270 267 266 264 263 263 262 261 260 261 260 259 259 259 258 259 259 259 259 258 258 258 258 258 258 258 259 258 260 259 260 261 267 269 271 272 270 270 268 267 267 268 268 268
277 277 276 277 275 272 272 272 273 273 272 270 270 270 273 272 269 267 267 265 264 262 262 261 260 260 259 259 258 260 259 258 260 259 257 257 257 257 257 257 257 257 258 258 259 259 259 259 260 261 267 269 271 272 271 269 269 269 268 268 269 269
274 274 274 273 272 271 271 272 273 273 270 269 270 273 270 267 266 265 264 263 262 261 259 259 258 258 257 257 257 257 257 258 257 257 256 257 256 256 256 256 257 257 257 258 258 258 258 260 263 262 266 269 270 271 272 270 270 271 270 270 270 270
274 274 276 274 270 270 271 271 272 270 269 270 272 268 266 265 264 264 263 262 260 259 257 257 257 257 256 256 256 256 256 256 255 255 255 255 255 255 255 256 256 256 257 257 258 258 258 259 260 264 264 268 270 272 273 273 273 274 273 271 269 270
275 275 274 271 269 269 270 271 272 270 269 272 267 264 263 263 263 262 261 260 259 257 257 256 255 255 255 255 255 254 254 255 255 254 255 255 255 255 255 256 256 256 256 257 258 258 259 260 260 263 267 268 270 272 273 274 274 275 272 272 271 271
275 275 273 270 267 267 268 269 272 269 269 269 264 264 262 262 260 260 260 258 257 256 255 254 253 253 253 253 255 255 255 254 253 255 254 254 255 255 255 256 255 255 255 256 257 258 259 261 262 263 266 269 271 272 273 273 274 275 275 272 272 272
272 270 272 270 267 266 266 267 270 270 270 265 264 263 262 260 260 259 258 256 255 254 253 254 253 253 253 254 254 254 255 255 255 255 254 254 255 254 254 255 255 255 255 256 257 258 260 262 264 265 266 268 269 270 272 273 274 274 274 274 273 274
271 271 271 272 268 266 265 265 267 268 264 263 263 262 260 260 260 260 257 256 256 253 253 255 255 254 254 253 254 254 254 255 254 254 255 255 254 254 254 254 255 255 256 256 258 259 262 263 264 265 266 267 268 269 270 271 271 273 274 272 272 273
271 272 271 272 271 267 265 264 264 263 262 262 262 260 259 260 260 260 258 256 255 255 253 255 256 256 255 254 253 254 253 253 254 254 255 255 255 254 255 255 256 256 257 258 259 261 262 263 265 266 266 268 269 270 271 271 271 271 271 271 272 272
271 271 271 272 271 266 264 263 262 260 262 262 260 259 260 260 259 258 256 254 253 254 254 254 255 255 255 254 251 252 254 254 254 254 255 255 255 256 256 257 258 259 259 260 261 261 262 262 264 267 271 271 273 271 271 270 271 272 271 272 273 270
271 271 270 272 268 265 264 263 261 259 261 260 259 260 261 259 258 256 255 254 254 253 254 254 253 252 253 253 253 252 252 257 261 259 257 257 262 265 267 266 261 261 262 261 262 263 261 263 267 272 273 273 273 273 274 274 274 274 272 272 272 268
269 269 269 270 266 264 263 263 261 259 259 259 259 260 260 258 258 257 256 254 254 255 254 254 253 253 252 252 253 252 253 253 256 262 266 267 267 268 269 270 271 272 272 270 268 269 272 272 272 272 272 272 272 273 274 273 273 272 271 271 267 262
267 267 269 268 265 264 262 262 260 259 258 258 258 259 258 258 259 259 257 256 255 256 256 254 254 254 253 253 254 253 253 253 253 254 261 264 265 267 267 268 269 270 270 270 270 269 267 269 270 271 271 272 272 273 272 272 271 270 269 269 266 259
269 269 267 265 263 262 261 261 259 258 257 257 257 257 257 256 257 258 256 255 255 255 256 255 254 254 254 253 253 252 252 252 252 253 254 256 262 264 265 266 268 268 268 268 268 269 268 269 270 270 271 271 272 271 270 271 270 268 268 266 260 257
265 265 264 262 261 261 260 260 258 257 256 255 256 256 256 256 256 256 255 255 254 254 254 255 254 254 254 254 254 253 253 253 253 252 252 253 253 256 260 263 263 265 265 265 266 267 268 269 269 269 270 271 271 270 270 268 264 266 265 263 258 256
262 260 260 260 259 259 258 259 256 255 255 255 255 255 255 254 255 253 255 256 255 254 254 255 256 254 253 253 253 253 254 253 254 253 253 252 253 252 253 254 256 259 261 262 263 265 267 267 268 269 270 270 269 268 268 265 257 256 256 257 256 256
259 257 257 257 257 257 258 257 254 254 254 254 254 254 254 254 255 254 254 255 255 254 255 254 254 254 254 253 253 252 254 253 254 254 253 253 253 253 252 253 254 254 258 262 264 265 265 266 267 268 269 268 267 267 264 256 255 255 255 255 256 255
Wind_Speed
8 8 8 7 7 6 6 6 6 5 6 6 7 9 8 8 7 6 5 6 5 5 6 7 7 6 6 6 6 5 7 6 5 5 4 3 3 3 3 3 4 4 4 4 4 4 4 4 4 4 4 5 4 4 4 4 4 5 5 4 4 4
9 9 9 9 9 8 7 7 6 7 6 7 7 6 6 7 8 7 8 6 7 7 6 5 5 5 6 5 6 5 5 5 5 4 5 4 3 3 4 4 5 4 5 4 4 5 5 6 6 6 6 6 5 6 6 6 6 6 7 6 5 4
7 7 8 7 6 6 6 6 8 7 6 7 8 10 9 8 8 7 7 7 7 8 8 7 6 6 5 6 5 6 5 5 4 4 4 3 4 3 4 4 4 4 4 5 5 5 5 6 6 5 5 5 5 5 5 6 6 7 6 6 7 6
8 7 6 6 7 7 8 7 7 7 8 8 8 7 8 9 8 8 8 7 7 8 7 6 5 5 5 6 6 6 5 4 4 4 3 5 3 3 4 4 3 3 4 4 4 4 4 4 4 5 4 5 5 5 4 5 6 6 6 6 7 7
9 10 11 10 10 9 8 8 8 8 8 8 8 9 9 9 9 8 7 7 7 8 6 6 5 5 6 6 5 5 5 4 4 3 4 4 3 3 3 3 2 3 3 3 3 4 4 4 4 4 5 5 6 6 6 6 6 7 7 7 8 8
8 8 9 9 9 10 10 8 8 8 8 9 8 9 10 8 8 8 7 7 7 7 6 6 5 5 5 5 4 5 4 3 3 3 4 3 2 2 2 2 2 2 2 2 3 3 3 4 4 4 5 5 6 6 7 7 6 7 7 7 8 8
11 10 10 11 9 8 9 9 9 9 9 8 9 8 9 8 8 8 8 8 8 7 6 6 5 5 5 5 4 4 4 3 3 3 3 3 2 1 1 1 1 0 1 1 2 3 3 3 4 5 5 5 5 6 6 7 7 7 7 7 7 8
9 10 11 9 10 10 10 9 9 9 8 9 8 9 9 8 8 8 9 8 8 7 7 6 5 6 5 5 4 4 4 3 3 3 2 2 1 2 2 2 1 1 0 1 1 2 3 3 4 5 5 5 6 6 6 7 7 7 7 7 7 7
12 10 10 10 10 10 9 10 9 9 9 9 8 7 9 9 9 9 9 8 8 8 8 7 7 6 6 5 5 4 3 3 3 3 2 2 2 3 2 2 2 0 0 1 1 2 2 3 4 4 5 6 6 6 7 7 7 7 7 7 7 7
9 10 11 10 10 9 9 9 10 11 10 10 9 8 7 7 9 9 9 9 8 8 8 7 7 6 6 5 4 4 4 3 3 2 2 2 3 2 2 1 1 0 0 1 1 2 2 3 4 4 5 6 6 6 7 7 7 8 8 7 7 7
10 10 10 10 9 11 11 10 9 9 9 9 9 9 9 8 8 9 9 8 9 9 8 7 6 5 6 6 5 5 4 3 2 2 2 2 2 1 1 0 1 1 0 0 1 1 2 2 3 4 5 6 7 7 9 9 9 9 9 8 7 7
7 8 9 9 11 12 12 11 11 12 12 12 11 10 9 8 9 9 9 9 9 8 7 7 7 7 7 7 6 5 4 3 3 3 2 2 1 1 1 1 1 1 0 1 1 2 2 2 3 6 11 10 9 9 8 8 8 8 8 9 9 9
8 8 10 12 12 13 13 13 13 12 11 11 11 11 10 9 9 9 10 10 9 8 7 7 7 7 8 6 6 3 2 3 2 1 1 1 2 2 2 1 1 0 0 1 1 2 2 2 4 10 11 12 13 9 9 8 9 9 9 8 9 10
9 10 12 12 12 11 11 11 10 9 10 10 11 10 8 9 10 10 10 9 7 8 9 8 8 8 7 6 4 4 2 2 2 2 3 3 2 2 2 1 1 0 0 1 1 2 3 3 7 11 12 12 12 11 9 8 8 8 9 9 9 9
10 11 10 8 10 11 12 10 9 10 11 11 11 7 9 10 10 9 9 8 8 8 8 8 8 6 6 5 4 3 3 3 4 4 4 4 2 2 2 1 0 1 1 1 2 3 3 4 8 12 12 12 13 13 11 8 8 9 9 9 9 10
6 7 9 9 9 10 8 9 11 11 9 8 5 9 9 9 9 9 9 8 8 8 8 9 7 7 6 5 5 4 3 4 5 4 3 1 1 1 2 1 1 1 1 2 3 3 4 5 9 12 13 13 13 13 12 9 9 9 10 10 10 9
7 6 6 8 8 6 7 8 8 5 5 6 8 7 9 8 9 8 8 8 7 7 7 9 7 7 6 6 5 4 5 5 4 4 3 1 1 2 2 2 1 2 2 2 3 4 4 4 11 13 14 13 14 14 13 8 8 8 9 9 10 10
10 10 9 6 6 7 8 9 7 7 7 6 8 7 8 8 7 8 7 7 7 8 9 8 7 6 6 7 5 5 5 5 5 3 2 1 1 1 1 2 1 2 3 3 4 4 5 5 11 14 14 14 14 15 9 7 8 9 9 9 10 10
8 8 5 6 7 7 9 6 7 7 6 7 7 6 5 5 7 9 9 8 9 9 9 9 8 7 7 6 6 6 6 5 4 2 1 0 2 2 2 2 2 2 3 4 3 5 5 5 9 13 14 14 16 12 8 8 8 8 9 10 11 11
3 4 7 7 8 8 5 6 8 8 8 7 6 6 7 6 9 9 8 9 8 9 9 8 7 8 6 6 7 6 5 2 1 1 1 1 2 3 3 3 3 2 2 4 5 4 6 5 8 14 15 15 15 13 9 8 8 10 11 11 11 10
6 5 5 6 7 7 6 7 8 8 8 7 8 7 7 9 9 9 10 9 8 8 8 6 6 6 7 6 6 5 4 2 2 1 0 1 1 3 2 3 3 3 2 3 5 8 8 7 8 13 15 16 15 12 9 8 9 9 9 10 11 10
7 4 5 7 8 6 8 8 8 7 8 8 7 7 8 11 12 8 6 8 8 8 6 5 6 6 6 6 5 4 3 2 1 1 1 1 1 2 2 3 3 5 4 3 4 4 5 7 5 8 16 15 15 15 10 9 8 10 11 11 11 11
8 10 11 10 6 7 7 8 7 7 6 7 8 9 12 7 6 8 8 9 8 6 6 5 6 7 5 4 5 4 2 2 2 2 2 2 2 2 3 4 4 4 4 2 4 3 4 5 7 7 15 16 16 16 13 8 9 11 11 11 10 9
5 4 3 4 7 7 8 8 9 7 8 6 10 12 3 7 8 8 9 8 7 7 6 6 4 5 5 4 5 4 3 2 2 2 2 2 2 3 4 4 3 4 4 2 2 3 4 5 10 8 12 16 16 16 17 11 10 11 10 10 7 10
7 9 10 6 7 7 7 8 8 7 6 10 10 5 7 7 8 8 8 8 7 7 7 6 6 5 5 5 5 5 4 3 2 3 3 2 2 3 5 4 4 5 5 3 1 2 3 4 4 12 11 15 17 17 16 17 15 18 13 12 13 13
8 8 6 5 6 6 7 10 10 8 9 12 5 7 6 7 7 8 8 7 7 7 6 5 5 5 4 5 5 4 5 4 3 3 3 1 1 2 3 2 3 3 5 7 3 1 2 3 4 8 13 13 17 17 19 18 18 19 13 12 12 12
11 10 7 6 7 7 8 7 10 9 11 6 8 8 9 9 9 8 8 7 7 6 6 5 5 5 5 5 6 5 5 4 3 2 2 1 1 2 3 3 2 3 4 5 6 5 3 4 5 5 8 15 17 18 18 18 20 20 20 14 11 11
6 6 8 7 7 8 7 8 8 12 11 7 8 9 9 10 10 9 8 7 6 7 6 7 5 5 6 5 5 5 5 5 4 3 2 2 2 2 3 4 3 3 4 5 5 7 7 5 5 6 7 9 12 13 16 20 19 19 20 19 15 22
7 9 10 11 8 9 8 8 9 7 5 10 9 10 10 10 10 9 8 8 7 6 7 7 6 5 5 4 4 4 4 4 3 3 3 3 3 3 3 4 3 4 5 6 7 7 7 6 6 7 7 6 7 7 9 10 9 16 17 14 11 14
9 11 10 12 11 9 9 8 9 7 7 7 10 10 10 10 11 11 10 9 8 7 7 7 5 6 5 5 5 4 4 3 3 4 5 5 5 4 4 3 5 6 6 7 6 7 7 6 7 8 6 7 6 6 8 9 10 10 9 9 9 11
11 11 10 12 7 7 8 9 8 7 9 10 10 11 12 11 8 7 7 7 7 7 6 6 6 5 5 4 4 3 4 4 4 6 5 6 4 5 6 6 7 7 7 6 6 6 7 6 6 6 10 11 15 13 11 10 9 8 9 13 20 14
11 11 11 11 6 8 9 9 8 8 8 9 10 11 12 11 9 7 8 7 7 6 6 5 5 4 4 5 4 3 4 6 10 8 6 5 10 15 16 13 8 8 7 8 9 9 9 7 7 15 17 17 17 18 19 18 18 18 15 18 21 12
9 9 9 10 6 8 9 9 9 9 8 9 10 11 10 11 9 7 7 7 7 7 7 5 5 4 4 4 3 3 3 4 5 9 13 13 12 12 14 15 18 18 17 11 6 7 16 18 17 16 16 16 16 17 17 16 17 17 17 18 10 5
9 11 14 8 7 9 8 8 8 9 8 8 8 8 9 10 9 9 8 7 5 6 6 4 4 4 4 3 3 3 3 3 4 7 7 7 8 10 12 14 16 16 14 15 13 9 5 9 13 15 15 15 16 15 14 15 15 15 16 14 11 5
11 10 7 5 7 7 8 9 8 6 6 7 7 7 8 7 7 6 5 5 5 5 6 5 4 4 4 4 3 3 2 3 3 4 7 9 10 11 13 15 15 12 10 10 10 12 12 12 12 13 13 14 14 12 12 13 13 14 13 11 7 3
5 5 5 5 6 7 7 8 7 7 6 6 6 6 7 7 6 5 5 6 6 6 5 5 4 4 3 3 3 2 3 3 3 3 2 4 7 10 6 0 1 5 8 9 11 12 13 12 11 11 12 12 11 11 12 11 8 10 8 8 4 4
4 4 4 5 5 6 7 7 5 6 6 7 7 7 6 5 6 4 4 6 5 4 5 4 3 4 3 3 3 3 3 3 3 3 3 3 3 3 6 9 6 4 6 8 10 12 12 11 11 11 11 10 9 10 11 10 7 6 4 3 1 3
3 3 3 4 5 5 5 5 5 7 6 7 7 7 6 6 6 5 4 4 4 4 3 4 5 4 5 4 3 3 3 4 3 4 4 4 3 4 4 5 8 7 10 15 13 10 9 10 11 10 9 7 9 9 10 4 4 4 4 5 3 2
Wind_Direction
184 179 169 166 168 169 171 167 160 157 150 144 137 137 139 139 133 122 115 111 108 113 110 107 103 112 109 103 96 89 88 91 93 97 106 109 91 86 79 70 62 49 37 38 29 25 23 18 14 10 10 8 7 7 1 359 358 352 348 349 347 336
183 169 168 171 175 174 176 167 159 163 158 143 139 129 133 134 134 135 127 130 125 122 113 102 115 117 114 110 112 106 105 114 114 110 98 89 85 71 61 51 47 37 31 26 22 14 14 10 7 5 3 -0 3 353 352 349 350 348 343 340 343 336
174 170 169 169 166 165 162 165 167 166 156 153 162 153 156 149 147 139 139 138 137 131 126 131 127 116 108 111 110 105 97 94 86 78 82 82 63 57 52 50 41 31 29 18 16 15 3 3 357 355 353 349 344 342 335 335 339 337 332 330 330 332
171 174 170 163 161 171 175 174 165 164 170 171 166 162 162 154 159 154 150 150 138 131 129 125 125 122 106 95 90 91 103 98 90 93 85 77 69 62 48 47 33 27 22 14 10 5 355 349 347 342 342 337 333 329 328 327 330 324 320 321 320 325
177 181 182 178 178 177 177 175 174 174 176 173 178 167 174 169 163 156 152 145 139 136 135 133 122 116 120 119 121 106 99 95 92 81 85 77 63 53 60 35 40 23 13 9 357 351 349 342 338 337 333 326 325 321 321 320 319 318 317 317 313 316
179 178 183 179 182 185 184 180 180 179 179 182 176 179 173 171 161 160 151 145 140 139 136 135 140 127 125 108 107 106 95 97 97 94 95 94 75 68 47 34 30 22 2 359 342 338 334 331 327 324 318 311 310 307 307 308 305 302 301 301 304 308
188 190 187 189 185 181 181 182 188 182 186 187 184 184 176 168 163 155 156 149 147 152 150 151 142 131 131 129 128 129 125 120 111 97 98 88 72 89 100 44 42 40 339 316 311 311 312 316 313 309 302 299 297 297 297 296 295 293 295 296 296 299
189 194 194 187 186 186 185 187 188 187 188 194 192 182 175 172 161 165 153 153 153 166 167 160 155 159 157 156 156 153 144 124 116 115 121 126 170 160 168 162 157 182 261 294 294 307 312 315 312 303 302 299 301 296 293 291 290 292 294 295 296 297
201 196 191 190 186 186 188 187 187 188 188 197 205 199 180 172 165 162 159 162 168 169 177 171 177 167 164 162 157 143 133 132 126 138 165 175 181 164 175 171 156 203 155 309 338 322 325 316 307 302 297 298 293 292 293 297 296 295 293 291 294 294
195 193 192 187 187 183 190 191 190 189 187 194 196 201 194 177 166 164 167 167 175 183 185 183 173 162 159 146 139 139 139 135 145 175 192 179 180 166 171 161 142 173 54 335 343 318 320 309 302 295 293 288 288 288 294 297 299 298 296 291 290 292
197 190 187 187 178 189 194 192 195 195 194 194 195 193 201 181 172 174 174 175 187 196 184 170 160 144 141 139 135 138 143 147 168 196 203 183 171 158 171 155 174 165 159 314 297 303 302 296 289 294 290 299 304 309 307 307 305 305 302 302 297 294
192 189 184 189 193 196 196 196 197 197 196 196 193 195 199 172 185 179 182 188 199 191 175 170 157 150 140 140 145 146 142 152 193 210 196 191 183 210 206 213 226 160 228 269 284 292 287 283 283 285 295 305 309 311 309 305 302 303 304 303 304 303
200 189 194 200 199 200 198 201 201 199 198 194 190 196 191 180 185 193 190 201 198 181 165 163 168 149 153 146 133 137 146 176 199 209 204 215 213 216 219 219 189 165 268 277 296 297 285 282 280 292 303 308 310 308 305 303 302 301 300 299 300 303
202 200 204 204 203 201 203 204 201 192 201 195 198 197 175 182 192 195 200 202 181 175 173 174 158 158 153 140 150 151 158 166 202 213 214 218 212 228 206 224 176 257 256 276 281 282 284 278 289 300 304 309 309 309 305 301 298 298 294 294 294 296
209 207 208 203 201 202 207 196 184 198 200 197 205 171 176 190 194 197 201 193 180 183 180 170 168 163 157 155 149 152 158 179 209 214 218 219 224 216 222 232 242 238 266 281 288 286 287 280 295 299 305 308 310 308 306 296 293 291 291 292 294 294
209 208 206 203 204 204 194 185 195 205 200 195 169 174 189 185 196 196 201 186 188 180 173 171 168 167 161 151 150 154 169 187 210 217 220 213 231 225 257 244 246 252 281 303 303 296 293 290 293 301 306 309 307 306 303 294 292 290 289 289 289 288
205 200 203 206 198 186 172 195 203 188 167 171 177 186 182 194 194 199 197 190 184 168 172 171 171 164 154 148 153 162 182 195 207 213 209 204 229 239 250 262 271 290 298 302 303 296 293 286 299 305 308 307 306 303 305 296 292 287 282 283 284 282
198 195 204 190 166 184 185 197 181 174 190 161 178 180 188 187 194 200 182 189 183 182 176 170 168 160 152 151 157 174 193 195 202 203 202 203 234 238 253 280 288 295 301 299 298 295 291 291 302 306 306 305 305 306 304 295 286 282 282 283 284 283
189 195 168 169 181 177 197 180 165 172 162 171 180 172 178 172 192 199 192 194 186 184 177 171 164 163 158 159 170 188 198 195 204 205 186 233 279 286 296 295 297 297 295 292 284 289 289 288 297 301 304 306 306 308 296 289 285 283 285 284 286 286
177 165 172 168 183 192 171 165 161 162 170 184 170 166 179 182 206 199 190 195 186 178 166 164 159 161 165 166 187 191 194 184 204 197 183 278 292 289 286 297 289 277 274 279 282 278 285 276 294 303 305 306 305 303 298 294 286 283 283 285 285 283
173 165 153 159 183 194 167 164 157 157 181 178 179 177 182 206 210 192 195 189 163 161 154 151 154 157 165 179 184 178 185 191 196 186 180 225 250 268 281 279 285 283 268 252 263 287 294 291 295 301 303 304 304 304 295 291 289 287 289 292 291 287
122 128 158 180 207 164 163 158 162 172 176 184 161 180 202 213 210 189 163 146 146 145 147 148 150 157 164 174 166 168 176 162 142 198 216 252 263 270 280 281 279 282 275 256 258 256 271 282 280 292 301 302 302 303 300 295 292 293 293 291 286 283
177 180 189 200 177 161 163 156 153 181 183 164 170 201 215 200 147 149 151 135 139 141 143 144 153 157 163 158 163 159 156 171 189 182 210 247 261 264 284 282 275 273 275 263 260 252 262 263 281 287 302 302 304 303 302 293 286 286 284 279 272 265
205 225 247 222 163 167 164 163 174 182 167 161 201 216 149 135 147 141 143 145 144 144 143 146 145 145 152 149 136 149 174 189 171 206 209 234 245 274 282 283 283 285 282 268 249 243 255 269 288 296 300 303 302 302 299 294 284 284 285 283 269 291
204 212 215 188 164 167 176 172 180 178 170 195 215 144 136 138 141 142 141 140 145 150 152 153 152 151 147 152 159 155 176 187 184 211 208 216 248 275 290 286 292 298 295 288 249 247 244 258 262 293 293 298 303 302 300 296 293 296 297 296 294 288
208 216 219 179 172 175 178 178 185 183 185 215 142 134 129 138 138 140 140 148 151 148 151 154 151 150 157 156 154 161 170 191 194 206 214 210 230 275 286 287 292 298 302 307 297 254 275 267 271 275 286 294 302 305 304 302 301 300 296 291 290 296
206 215 219 196 185 189 190 194 188 184 204 194 145 153 152 147 147 146 155 157 157 154 153 144 155 163 169 177 165 172 178 194 181 193 230 181 257 255 274 277 277 286 293 297 298 312 312 303 287 277 279 300 307 308 305 304 303 303 303 301 293 287
219 211 223 223 199 197 196 202 189 189 211 149 161 155 154 150 150 158 162 162 159 164 156 161 176 182 186 182 187 188 186 180 189 183 207 203 236 230 250 270 273 277 279 282 295 305 309 293 282 281 284 291 294 293 297 301 304 306 305 303 302 301
209 219 219 228 212 200 204 202 215 210 139 165 158 158 154 157 161 161 164 169 171 164 172 176 183 182 185 192 185 186 182 183 173 183 205 215 222 234 231 253 262 276 275 281 292 296 300 301 289 292 287 272 280 286 289 290 282 303 306 301 282 289
215 221 217 228 221 195 197 199 207 189 164 161 161 156 155 162 171 172 177 178 173 176 179 186 183 182 187 195 180 180 194 200 183 188 207 198 208 210 242 235 256 259 269 279 285 288 284 282 298 297 275 282 273 278 300 308 308 302 289 296 311 316
214 224 218 231 213 179 193 205 198 181 175 169 163 160 163 171 172 169 170 172 167 182 181 183 188 190 192 200 205 217 200 190 196 211 230 227 192 204 225 248 251 249 250 254 261 267 277 285 267 250 298 304 313 314 312 310 305 312 325 325 323 323
213 221 223 232 196 185 195 199 193 189 182 166 168 167 169 167 164 169 182 175 181 179 177 185 190 193 193 195 209 230 276 242 231 219 212 239 231 236 239 235 230 235 236 238 239 224 228 237 271 303 311 314 312 312 310 311 320 323 325 328 330 340
220 228 235 230 187 194 195 197 190 185 183 174 174 174 169 159 166 179 181 180 193 188 183 183 187 191 186 196 193 206 235 317 290 270 264 267 268 265 267 269 272 277 280 282 297 285 278 289 301 308 309 310 312 308 314 323 325 330 335 333 345 15
224 222 230 219 190 198 193 196 193 189 179 173 171 171 163 170 169 182 191 187 184 181 185 178 179 168 178 194 198 198 215 252 296 300 283 282 286 288 285 280 279 279 281 283 283 288 300 301 299 302 307 310 307 313 325 326 330 339 340 341 6 358
220 224 227 197 193 191 191 194 193 175 174 169 166 160 163 173 174 172 169 175 174 180 176 177 176 180 177 193 197 210 196 218 241 284 311 320 319 305 284 278 275 279 285 291 297 297 294 295 302 305 307 305 310 326 328 329 347 346 343 354 2 330
225 218 209 201 194 190 183 196 184 175 170 160 159 161 167 170 180 172 167 175 178 172 182 179 181 179 186 181 186 196 208 226 220 234 259 305 327 332 336 126 285 319 326 319 310 304 301 300 304 306 305 308 324 335 330 351 -0 349 5 1 338 325
208 203 194 181 174 178 187 196 170 160 157 163 158 159 160 166 167 155 161 158 159 179 179 176 171 177 178 177 193 206 224 229 220 221 230 235 261 268 282 301 298 297 296 300 306 299 296 303 307 307 307 317 346 341 348 12 10 350 336 353 287 292
164 173 154 160 170 178 185 182 151 155 159 160 160 161 166 166 165 162 157 173 171 170 169 172 178 175 178 184 200 197 215 215 228 237 238 245 242 247 262 269 280 297 308 307 300 298 303 306 311 308 310 339 357 355 19 11 335 328 320 318 303 266